Location: Unspecified
(0.0000°N, 0.0000°E)
Time: 00:41:15
(UTC+00:00)

Tiros 1 despin weight - Pass Details

Date: 20 December 2018
Orbit: 594 x 643 km, 48.2° (Epoch: 18 January)

Event Time Altitude Azimuth Distance (km) Brightness Sun altitude
Rises 18:22:01 0° 208° (SSW) 2,836 ? -5.6°
Reaches altitude 10° 18:24:24 10° 201° (SSW) 1,928 ? -6.1°
Maximum altitude 18:28:36 44° 129° (SE) 826 ? -7.1°
Drops below altitude 10° 18:32:47 10° 57° (ENE) 1,914 ? -8.0°
Enters shadow 18:32:52 10° 56° (ENE) 1,949 ? -8.1°
